TimeCST,TemperatureF,Dew PointF,Humidity,Sea Level PressureIn,VisibilityMPH,Wind Direction,Wind SpeedMPH,Gust SpeedMPH,PrecipitationIn,Events,Conditions,WindDirDegrees,DateUTC
12:53 AM,30.9,18.0,59,29.88,10.0,SSE,11.5,-,N/A,,Clear,160,2011-12-26 06:53:00
1:53 AM,32.0,19.0,59,29.82,10.0,South,13.8,21.9,N/A,,Clear,170,2011-12-26 07:53:00
2:53 AM,33.1,19.0,56,29.78,10.0,SSE,17.3,24.2,N/A,,Clear,160,2011-12-26 08:53:00
3:53 AM,30.9,18.0,59,29.73,10.0,SSE,17.3,-,N/A,,Clear,160,2011-12-26 09:53:00
4:53 AM,32.0,19.0,59,29.67,10.0,South,17.3,-,N/A,,Clear,170,2011-12-26 10:53:00
5:53 AM,33.1,19.9,59,29.62,10.0,South,13.8,-,N/A,,Clear,170,2011-12-26 11:53:00
6:53 AM,33.1,19.9,59,29.60,10.0,South,11.5,-,N/A,,Clear,180,2011-12-26 12:53:00
7:53 AM,33.1,19.9,59,29.58,10.0,South,10.4,-,N/A,,Clear,190,2011-12-26 13:53:00
8:53 AM,37.0,21.9,54,29.58,10.0,SW,12.7,-,N/A,,Clear,220,2011-12-26 14:53:00
9:53 AM,39.9,24.1,53,29.59,10.0,WSW,11.5,-,N/A,,Clear,240,2011-12-26 15:53:00
10:53 AM,46.9,24.1,41,29.60,10.0,West,19.6,-,N/A,,Clear,270,2011-12-26 16:53:00
11:53 AM,51.1,23.0,33,29.58,10.0,West,26.5,33.4,N/A,,Clear,280,2011-12-26 17:53:00
12:53 PM,48.9,21.9,35,29.55,10.0,West,19.6,31.1,N/A,,Clear,260,2011-12-26 18:53:00
1:53 PM,51.1,23.0,33,29.54,10.0,West,29.9,41.4,N/A,,Clear,270,2011-12-26 19:53:00
2:53 PM,50.0,24.1,36,29.55,10.0,West,26.5,35.7,N/A,,Mostly Cloudy,270,2011-12-26 20:53:00
3:53 PM,48.0,28.9,48,29.58,10.0,West,26.5,35.7,N/A,,Overcast,280,2011-12-26 21:53:00
4:53 PM,44.1,28.0,53,29.62,10.0,West,20.7,-,N/A,,Clear,270,2011-12-26 22:53:00
5:53 PM,42.1,28.0,58,29.65,10.0,WNW,21.9,32.2,N/A,,Partly Cloudy,290,2011-12-26 23:53:00
6:53 PM,39.9,28.0,63,29.70,10.0,NW,20.7,33.4,N/A,,Scattered Clouds,310,2011-12-27 00:53:00
7:53 PM,37.9,28.0,68,29.75,10.0,NW,20.7,27.6,N/A,,Clear,310,2011-12-27 01:53:00
8:13 PM,37.4,28.4,70,29.72,10.0,WNW,16.1,24.2,N/A,,Mostly Cloudy,300,2011-12-27 02:13:00
8:53 PM,39.0,28.0,65,29.77,10.0,NW,11.5,-,N/A,,Overcast,320,2011-12-27 02:53:00
9:53 PM,39.0,28.0,65,29.79,10.0,NNW,18.4,26.5,N/A,,Overcast,330,2011-12-27 03:53:00
10:53 PM,36.0,27.0,70,29.82,10.0,North,18.4,-,0.00,,Overcast,350,2011-12-27 04:53:00
11:53 PM,34.0,25.0,70,29.86,10.0,North,21.9,28.8,N/A,,Overcast,350,2011-12-27 05:53:00